Tracking 31027 objects as of 19-Jul-2025
HD Live streaming from Space Station
objects crossing your sky now

FENGYUN 1C DEB

Track FENGYUN 1C DEB now!
10-day predictions


NORAD ID: 31715
Int'l Code: 1999-025CDN
Perigee: 595.7 km
Apogee: 868.6 km
Inclination: 99.3 °
Period: 99.3 minutes
Semi major axis: 7103 km
RCS: 0.0108 m2 (small)
Launch date: May 10, 1999
Source: People's Republic of China (PRC)
Launch site: Taiyaun Space Center, China (TSC)

Note: This is SATELLITE DEBRIS
Your satellite tracking list
STARLINK-2062
Track 1 satellite(s)




NASA's NSSDC Master Catalog

Two Line Element Set (TLE):
1 31715U 99025CDN 25196.22815931  .00003928  00000-0  80964-3 0  9998
2 31715  99.2945   9.2130 0192079 207.4541 151.6400 14.50188824595347
Source of the keplerian elements: AFSPC